Regional Weather Roundup
Issued by NWS Charleston, WV

Home | Current Version | Previous Version | Text Only | Print | Product List | Glossary On
Versions: 1 2 3 4 5 6 7 8 9 10 11 12 13 14 15 16 17 18 19 20 21 22 23 24 25 26 27 28 29 30 31 32 33 34 35 36 37 38 39 40 41 42 43 44 45 46 47 48 49 50
000
ASUS41 KRLX 301710
RWRRLX
West Virginia Regional Weather Roundup
National Weather Service Charleston WV
100 PM EDT TUE JUN 30 2015

Note: "fair" indicates few or no clouds below 12,000 feet with no
significant weather and/or obstructions to visibility.

WVZ003-301800-
Northern Panhandle of West Virginia

CITY           SKY/WX    TMP DP  RH WIND       PRES   REMARKS
WHEELING       PTSUNNY   74  64  71 SW14G20   29.86F
$$

WVZ009-301800-
Northwest West Virginia

CITY           SKY/WX    TMP DP  RH WIND       PRES   REMARKS
PARKERSBURG    NOT AVBL
$$

WVZ006-301800-
Western West Virginia

CITY           SKY/WX    TMP DP  RH WIND       PRES   REMARKS
HUNTINGTON     MOSUNNY   78  65  63 W10       29.90F
$$

WVZ015-301800-
West Central West Virginia

CITY           SKY/WX    TMP DP  RH WIND       PRES   REMARKS
CHARLESTON     PTSUNNY   78  63  59 SW10      29.91F
$$

WVZ022-031-301800-
North Central West Virginia

CITY           SKY/WX    TMP DP  RH WIND       PRES   REMARKS
CLARKSBURG     MOSUNNY   76  64  66 SW13      29.90F
MORGANTOWN     PTSUNNY   77  61  57 SW8G17    29.90F
$$

WVZ025-035-042-045-301800-
Southern West Virginia

CITY           SKY/WX    TMP DP  RH WIND       PRES   REMARKS
BECKLEY        PTSUNNY   75  60  59 W9        30.00S
LOGAN            N/A     77  66  69 VRB6      29.92S
BLUEFIELD      PTSUNNY   75  61  61 W8        30.03F
LEWISBURG      PTSUNNY   77  60  55 SW9       29.98F
$$

WVZ047-301800-
Northern Mountains of West Virginia

CITY           SKY/WX    TMP DP  RH WIND       PRES   REMARKS
ELKINS         MOSUNNY   76  60  57 W8        29.95F
$$

WVZ052-301800-
Eastern Panhandle of West Virginia

CITY           SKY/WX    TMP DP  RH WIND       PRES   REMARKS
MARTINSBURG    PTSUNNY   83  64  52 VRB6      29.88S
PETERSBURG     MOSUNNY   82  55  40 CALM      29.89F
$$



USA.gov is the U.S. government's official web portal to all federal, state and local government web resources and services.